EW2692 Weather Reports


time (UTC)temp
C
wind
direction
speed
KPH
gust
KPH
rain 1hr
cm
rain 24hr
cm
rain mn
cm
humidity
%
barometer
mb
20260504034521 14 297 3.2 14.5 0.00 0.00 0.00 40 931.4
20260504033017 14 321 1.6 4.8 0.00 0.00 0.00 41 930.9
20260504031517 15 344 1.6 8.0 0.00 0.00 0.00 39 930.3
20260504030035 15 329 4.8 16.1 0.00 0.00 0.00 38 930.0
20260504024517 16 332 6.4 20.9 0.00 0.00 0.00 37 929.7
20260504023016 17 289 9.7 27.4 0.00 0.00 0.00 35 929.4
20260504021513 20 329 16.1 30.6 0.00 0.00 0.00 31 928.9
20260504020013 20 273 12.9 25.7 0.00 0.00 0.00 30 928.0
20260504014531 21 288 19.3 37.0 0.00 0.00 0.00 29 927.9
20260504013011 21 301 12.9 30.6 0.00 0.00 0.00 29 928.0
20260504011511 22 323 14.5 32.2 0.00 0.00 0.00 28 928.0
20260504010010 22 313 20.9 41.8 0.00 0.00 0.00 28 928.0
20260504004511 22 308 20.9 40.2 0.00 0.00 0.00 27 928.1
20260504003023 23 286 20.9 41.8 0.00 0.00 0.00 24 928.0
20260504001508 24 296 24.1 43.5 0.00 0.00 0.00 20 928.0
20260504000007 25 304 25.7 48.3 0.00 0.00 0.00 18 928.0
20260503234520 24 267 25.7 43.5 0.00 0.00 0.00 22 928.1
20260503233004 24 325 22.5 38.6 0.00 0.00 0.00 21 928.2
20260503231503 25 273 20.9 37.0 0.00 0.00 0.00 19 928.1
20260503230104 24 257 17.7 48.3 0.00 0.00 0.00 21 928.3
20260503224557 24 257 16.1 33.8 0.00 0.00 0.00 25 928.6
20260503223059 23 306 24.1 43.5 0.00 0.00 0.00 25 929.1
20260503221554 23 302 17.7 35.4 0.00 0.00 0.00 25 929.4
20260503220051 24 286 19.3 35.4 0.00 0.00 0.00 23 929.9
20260503214547 24 268 17.7 33.8 0.00 0.00 0.00 22 930.2
20260503213059 23 227 17.7 37.0 0.00 0.00 0.00 21 930.6
20260503211542 23 264 17.7 43.5 0.00 0.00 0.00 22 930.9
20260503210053 23 282 14.5 30.6 0.00 0.00 0.00 24 931.2
20260503204547 23 230 16.1 32.2 0.00 0.00 0.00 24 931.5
20260503203034 23 273 19.3 33.8 0.00 0.00 0.00 25 931.8
20260503201532 21 288 17.7 32.2 0.00 0.00 0.00 25 932.1
20260503200031 22 277 16.1 32.2 0.00 0.00 0.00 26 932.4
20260503194528 22 250 16.1 27.4 0.00 0.00 0.00 26 932.7
20260503193034 22 265 16.1 27.4 0.00 0.00 0.00 27 933.2
20260503191522 22 255 12.9 43.5 0.00 0.00 0.00 27 933.5
20260503190027 21 269 14.5 41.8 0.00 0.00 0.00 30 933.9
20260503184532 22 264 12.9 32.2 0.00 0.00 0.00 30 934.3
20260503183012 21 263 17.7 45.1 0.00 0.00 0.00 30 934.5
20260503181510 21 291 16.1 32.2 0.00 0.00 0.00 30 934.8
20260503180018 21 281 19.3 37.0 0.00 0.00 0.00 31 935.2
20260503174506 21 284 19.3 33.8 0.00 0.00 0.00 31 935.7
20260503173002 20 298 22.5 33.8 0.00 0.00 0.00 32 935.8
20260503171600 20 244 12.9 27.4 0.00 0.00 0.00 37 935.9
20260503081511 1 297 0.0 0.0 0.00 0.00 0.00 75 940.9
20260503071510 1 297 0.0 1.6 0.00 0.00 0.00 74 941.1
20260503054548 3 298 0.0 0.0 0.00 0.00 0.00 65 941.3
20260503053049 5 298 0.0 1.6 0.00 0.00 0.00 62 941.2
20260503051551 5 298 0.0 1.6 0.00 0.00 0.00 63 941.2
20260503050048 3 298 0.0 1.6 0.00 0.00 0.00 67 941.3
20260503044546 3 298 0.0 0.0 0.00 0.00 0.00 66 941.4
20260503043043 4 298 0.0 1.6 0.00 0.00 0.00 62 941.5
20260503041537 5 298 0.0 0.0 0.00 0.00 0.00 58 941.5
20260503040045 6 298 0.0 0.0 0.00 0.00 0.00 57 941.6